This demonstration page uses our WeatherBlox Daily Observations layout. Learn more.

39.92423, -83.80882

Hourly Observations for August 27, 2017

Temp ( °F °C ) Dew Point ( °F °C ) Humidity (%) Winds ( mph kmh ) Pressure ( in mb ) Visibility ( mi km ) Precip ( " mm )
12:56 am 00:56 Clear 53 11.7 48 8.9 83 83 ENE 5 7 30.22 1024 10 16.0934 0 0
1:56 am 01:56 Clear 53 11.7 48 8.9 83 83 ENE 7 11 30.22 1023 10 16.0934 0 0
2:56 am 02:56 Clear 54 12.2 48 8.9 80 80 E 3 6 30.21 1023 10 16.0934 0 0
3:56 am 03:56 Clear 52 11.1 48 8.9 86 86 ENE 3 6 30.21 1023 10 16.0934 0 0
4:56 am 04:56 Clear 51 10.6 48 8.9 89 89 Calm 30.19 1022 10 16.0934 0 0
5:56 am 05:56 Clear 50 10 47 8.3 89 89 NE 3 6 30.19 1023 10 16.0934 0 0
6:56 am 06:56 Clear 49 9.4 47 8.3 93 93 E 3 6 30.19 1022 10 16.0934 0 0
7:56 am 07:56 Sunny 51 10.6 48 8.9 89 89 NE 6 9 30.2 1023 10 16.0934 0 0
8:56 am 08:56 Sunny 59 15 53 11.7 81 81 E 8 13 30.19 1022 10 16.0934 0 0
10:56 am 10:56 Sunny 69 20.6 54 12.2 59 59 ENE 7 11 30.18 1022 10 16.0934 0 0
11:56 am 11:56 Sunny 72 22.2 53 11.7 52 52 E 8 13 30.17 1022 10 16.0934 0 0
12:56 pm 12:56 Sunny 73 22.8 52 11.1 48 48 ENE 9 15 30.17 1022 10 16.0934 0 0
1:56 pm 13:56 Sunny 74 23.3 52 11.1 46 46 VRB 5 7 30.14 1021 10 16.0934 0 0
2:56 pm 14:56 Sunny 76 24.4 51 10.6 42 42 E 7 11 30.12 1020 10 16.0934 0 0
3:56 pm 15:56 Sunny 76 24.4 52 11.1 43 43 E 7 11 30.11 1020 10 16.0934 0 0
4:56 pm 16:56 Sunny 76 24.4 51 10.6 42 42 E 8 13 30.09 1019 10 16.0934 0 0
5:56 pm 17:56 Sunny 76 24.4 52 11.1 43 43 E 8 13 30.09 1019 10 16.0934 0 0
6:56 pm 18:56 Sunny 74 23.3 56 13.3 54 54 E 6 9 30.09 1019 10 16.0934 0 0
7:56 pm 19:56 Sunny 68 20 58 14.4 70 70 ENE 5 7 30.08 1019 10 16.0934 0 0
8:56 pm 20:56 Clear 64 17.8 55 12.8 73 73 Calm 30.09 1019 10 16.0934 0 0
9:56 pm 21:56 Clear 62 16.7 55 12.8 78 78 ENE 3 6 30.09 1019 10 16.0934 0 0
10:56 pm 22:56 Cloudy 63 17.2 55 12.8 76 76 ENE 3 6 30.08 1019 10 16.0934 0 0
11:56 pm 23:56 Clear 61 16.1 56 13.3 84 84 ENE 3 6 30.07 1018 10 16.0934 0 0

Powered by AerisWeather